Wind_Speed
2 4 5 6 5 4 4 3 2 2 3 3 4 5 5 5 6 6 5 4 4 5 7 8 9 10 10 8 7 4 4 6 7 11 10 11 10 11 13 16 13 12 11
1 5 7 6 4 3 2 2 1 1 2 2 2 3 4 4 4 4 4 4 4 5 7 8 10 10 8 8 7 4 3 6 6 11 12 12 9 9 11 14 14 12 13
1 4 7 6 4 3 2 1 0 1 1 2 2 3 3 4 4 3 4 4 5 6 7 6 8 10 9 6 6 4 2 5 7 8 13 11 8 9 10 11 13 14 12
3 4 5 4 3 2 2 2 1 2 2 3 3 4 4 4 4 4 4 5 5 5 5 6 7 8 8 7 5 4 1 4 7 9 10 10 9 7 8 8 11 11 10
4 1 3 3 4 3 3 3 3 4 3 3 4 4 4 5 5 5 5 6 6 6 7 7 7 5 6 8 6 4 1 3 6 8 10 10 8 9 6 4 7 8 8
4 4 5 5 6 6 6 6 6 6 7 7 7 8 8 7 7 7 7 7 8 8 9 8 6 4 5 5 5 4 1 4 6 8 11 13 9 12 5 4 5 6 7
12 10 9 8 8 9 10 10 10 10 9 9 10 9 9 10 10 10 9 10 10 9 9 9 7 5 5 4 3 3 2 4 8 10 13 14 14 13 7 5 3 4 5
12 12 13 14 14 14 14 14 14 14 14 14 15 15 14 13 12 12 12 12 12 12 11 10 8 6 5 5 4 3 2 3 8 11 15 16 16 12 13 5 2 3 4
14 15 15 16 17 17 17 18 18 19 20 21 21 21 20 19 17 15 14 14 14 13 13 12 10 9 7 7 6 5 4 4 7 12 16 19 16 17 12 8 5 6 7
14 14 14 14 15 16 17 18 19 20 20 20 21 20 21 22 23 22 20 18 16 16 15 14 13 11 10 9 8 7 6 6 7 11 16 20 23 21 17 11 11 9 7
13 14 14 14 14 15 16 16 16 18 19 19 19 19 19 19 21 22 24 23 21 19 17 16 14 14 13 11 10 9 8 8 8 11 16 19 23 24 19 16 16 15 12
13 13 13 13 13 14 14 15 16 16 18 19 19 18 18 18 19 20 22 21 22 21 21 19 17 15 14 14 12 11 10 9 9 10 15 18 21 22 20 17 16 18 16
15 15 15 15 15 15 15 16 16 16 17 18 19 20 20 20 21 20 21 22 21 22 22 22 21 19 16 16 16 14 13 13 12 11 13 17 20 20 21 20 24 21 18
18 18 18 17 18 18 19 19 19 19 19 19 19 20 19 21 21 22 22 22 22 23 22 23 23 22 20 19 18 18 18 16 16 14 14 18 23 23 22 17 23 27 24
22 22 22 22 22 22 22 23 23 23 23 23 23 22 22 22 21 23 23 23 23 23 23 23 25 25 24 24 22 21 21 21 20 19 18 17 21 26 25 21 18 18 16
25 26 26 27 27 27 27 27 28 27 27 27 27 27 25 25 24 23 23 25 24 25 24 23 24 27 27 28 26 25 24 24 24 23 22 21 21 23 29 27 23 23 22
30 30 30 31 31 31 31 31 31 31 31 31 30 31 29 29 28 27 27 26 27 26 26 26 25 26 28 31 31 31 28 27 27 27 26 26 24 24 24 26 29 27 25
30 30 31 31 32 32 32 32 32 33 33 35 35 35 33 33 32 31 31 31 30 28 27 27 28 27 29 30 32 33 34 33 30 29 30 29 29 28 26 25 26 26 25
30 31 33 34 34 34 34 35 35 35 35 36 38 38 37 37 36 36 35 35 34 33 31 30 29 29 30 31 32 34 35 37 36 37 34 30 30 32 31 30 29 30 30
34 36 36 37 38 37 37 37 37 38 38 40 40 41 42 41 41 39 39 40 38 37 36 35 34 33 32 32 34 36 36 36 36 38 39 39 37 34 33 34 34 34 33
38 37 37 37 37 37 37 36 36 37 39 41 41 43 44 44 44 44 43 43 43 42 41 40 38 37 36 35 37 35 36 38 38 37 37 37 40 40 38 36 37 37 37
37 37 36 36 37 36 35 35 33 33 33 35 39 42 44 46 47 47 47 46 47 46 44 44 43 43 41 39 40 39 39 39 39 36 37 36 36 39 40 40 39 39 38
35 35 35 35 35 35 36 35 35 35 35 36 36 37 40 43 46 48 49 50 50 50 50 48 47 46 46 44 43 42 43 42 41 40 37 36 36 38 39 41 42 40 39
34 34 34 35 35 36 37 37 39 40 40 39 40 40 41 42 44 45 47 49 52 53 55 53 52 51 50 49 46 46 46 45 44 45 43 40 36 36 37 39 40 41 42
33 35 36 37 38 38 39 41 43 44 45 47 48 50 49 48 48 49 49 50 51 51 53 57 58 56 55 54 52 49 48 48 48 48 49 44 42 37 36 38 39 39 41
36 39 41 42 43 46 49 51 54 57 59 62 64 65 66 65 63 61 59 58 57 56 55 55 56 57 59 58 56 54 53 52 51 51 51 49 46 43 42 39 38 38 39
Wind_Direction
57 83 113 122 127 125 124 126 90 60 53 39 35 33 36 35 36 36 43 35 27 353 344 344 344 349 358 7 10 28 108 123 121 154 156 153 147 144 151 146 146 145 136
62 98 119 124 127 136 135 134 148 47 27 34 34 28 27 33 30 22 20 15 12 355 345 344 344 345 359 2 10 34 120 145 151 161 165 158 159 157 158 162 161 156 154
135 105 136 141 151 157 151 157 183 262 318 347 4 7 10 7 12 2 352 344 340 345 344 354 359 348 353 11 12 18 111 152 166 166 173 169 167 164 160 164 174 179 185
155 163 142 154 166 169 184 187 244 313 329 332 325 332 332 326 325 323 327 332 338 351 1 351 353 358 351 360 21 29 106 173 169 175 174 167 157 153 156 164 178 183 191
193 169 173 188 202 222 222 230 250 273 287 305 307 314 309 308 309 302 302 308 322 326 328 333 338 2 7 351 1 35 75 190 186 175 176 161 139 144 177 178 178 181 184
203 215 222 223 223 230 239 251 256 264 276 279 277 287 295 297 301 301 300 298 304 309 316 321 321 319 346 355 343 345 126 185 193 183 166 150 156 168 195 184 167 173 183
191 207 230 230 236 241 240 241 246 252 257 264 271 273 281 290 293 291 291 294 296 298 302 306 309 304 310 335 329 332 310 194 193 187 176 168 169 187 205 164 164 183 178
232 243 246 247 250 250 252 256 259 262 268 272 273 275 274 273 276 280 283 285 287 288 290 294 296 288 294 305 313 297 273 227 199 195 184 181 182 185 185 188 226 189 166
252 252 253 253 255 257 258 260 262 266 268 268 269 272 274 273 271 271 271 270 275 281 281 282 283 274 273 281 290 292 264 227 211 201 195 188 196 188 208 219 217 171 155
252 253 254 255 257 261 264 266 267 268 269 272 272 270 269 269 268 266 266 267 266 269 274 275 271 270 266 266 272 276 270 250 222 205 202 201 197 195 205 212 204 188 174
252 259 262 263 264 264 264 265 268 271 272 271 272 275 276 273 274 270 268 267 264 260 262 264 266 265 264 260 259 265 268 263 248 220 209 204 207 209 216 211 207 198 191
248 253 258 262 265 266 269 271 271 273 274 274 271 270 269 271 274 277 276 270 268 263 255 256 260 260 260 256 253 256 257 253 254 242 226 209 207 209 211 217 218 210 200
249 253 257 261 264 267 270 273 275 274 272 272 273 275 273 270 271 269 273 277 275 270 263 255 256 258 258 257 254 251 249 247 248 247 239 218 211 211 215 234 220 215 217
254 259 263 265 267 270 271 272 272 273 275 272 272 273 273 273 271 270 271 269 272 273 268 261 254 252 253 254 253 253 252 251 247 243 240 225 221 219 229 238 226 211 224
259 262 264 267 269 269 271 270 270 269 272 273 273 273 271 269 269 272 270 270 269 268 270 268 262 256 250 249 252 254 253 248 246 247 244 231 229 231 225 239 240 234 238
263 266 268 269 270 271 271 272 271 270 268 270 271 271 271 272 270 268 271 271 270 268 266 264 266 263 259 251 246 248 250 250 248 245 245 243 237 232 233 232 242 249 250
265 267 269 271 271 272 271 269 270 270 272 269 268 271 272 271 271 271 269 267 269 271 270 267 261 261 261 263 258 247 246 248 247 250 248 246 245 240 237 236 237 242 249
270 271 271 271 272 273 274 273 271 269 267 267 268 270 269 269 268 266 266 267 268 268 268 268 266 262 259 258 260 262 257 250 248 248 248 247 246 243 242 242 242 241 241
268 270 273 273 272 271 271 270 270 270 268 267 268 267 268 268 267 267 266 265 267 267 266 265 264 265 263 260 258 257 257 258 256 253 252 252 248 246 245 245 247 249 251
269 270 270 270 271 271 270 269 267 265 266 265 265 265 266 266 267 266 266 267 265 265 265 263 263 262 262 263 263 260 260 259 256 255 255 254 254 254 249 248 247 251 253
272 272 273 274 274 273 272 271 269 267 265 263 263 263 263 264 264 264 265 265 266 266 264 265 264 263 261 262 262 264 263 260 258 255 254 255 254 253 254 254 253 252 254
271 273 275 277 278 278 277 275 273 269 267 266 265 265 265 264 263 263 262 262 264 264 264 264 263 264 263 262 263 263 263 264 263 261 257 253 253 252 251 252 253 253 253
278 279 281 281 281 281 280 278 277 278 275 273 271 269 268 267 266 265 264 262 260 261 262 261 262 263 263 262 261 263 264 265 264 264 261 257 252 251 250 250 252 254 254
280 281 283 285 286 285 285 283 282 280 279 278 277 274 270 270 269 269 268 267 264 261 260 259 258 259 261 261 260 261 262 263 263 264 262 258 256 253 253 253 252 252 254
284 287 288 289 290 292 292 291 290 288 287 286 285 284 281 276 272 270 269 269 268 266 265 263 259 256 256 259 259 259 260 261 261 261 260 259 260 255 256 254 255 254 253
288 292 295 297 298 300 300 300 299 299 296 292 290 288 286 283 280 277 274 270 267 267 267 265 265 262 259 256 257 258 256 258 260 260 260 259 257 258 255 254 256 255 255
Height
3166 3165 3166 3166 3167 3168 3169 3170 3171 3171 3171 3171 3171 3171 3171 3171 3171 3171 3171 3171 3171 3171 3170 3170 3169 3168 3167 3166 3166 3164 3164 3165 3165 3166 3167 3168 3169 3171 3172 3173 3174 3175 3176
3167 3167 3167 3167 3168 3169 3170 3170 3171 3171 3171 3171 3171 3171 3171 3172 3172 3172 3171 3172 3171 3171 3171 3171 3169 3168 3168 3166 3165 3165 3165 3165 3166 3167 3168 3169 3171 3172 3173 3174 3175 3176 3177
3168 3167 3167 3168 3169 3170 3170 3170 3171 3171 3171 3171 3171 3172 3172 3172 3172 3172 3172 3172 3172 3172 3171 3170 3170 3169 3168 3167 3166 3166 3165 3166 3166 3167 3168 3170 3172 3172 3173 3174 3175 3176 3177
3168 3167 3168 3168 3169 3169 3170 3171 3171 3171 3172 3172 3172 3172 3172 3172 3172 3172 3172 3172 3172 3171 3171 3171 3170 3170 3168 3167 3167 3166 3167 3167 3167 3168 3169 3171 3172 3173 3174 3175 3176 3176 3177
3169 3170 3170 3170 3169 3170 3170 3171 3171 3171 3171 3171 3171 3171 3172 3172 3172 3172 3172 3172 3172 3171 3171 3171 3170 3170 3169 3167 3167 3166 3166 3167 3168 3168 3170 3171 3173 3175 3175 3176 3176 3176 3177
3170 3169 3169 3168 3169 3169 3170 3170 3171 3170 3170 3171 3171 3171 3171 3171 3171 3171 3171 3171 3171 3171 3171 3171 3170 3170 3169 3169 3168 3167 3166 3167 3168 3169 3171 3172 3174 3175 3176 3176 3176 3177 3177
3168 3167 3169 3169 3169 3168 3168 3168 3168 3168 3168 3168 3169 3169 3169 3170 3170 3171 3171 3171 3170 3170 3170 3170 3170 3169 3169 3168 3168 3167 3167 3167 3168 3169 3171 3173 3174 3175 3176 3176 3177 3178 3178
3168 3168 3169 3168 3168 3168 3168 3168 3168 3168 3168 3168 3168 3167 3168 3168 3168 3169 3169 3170 3170 3169 3170 3169 3169 3169 3168 3167 3167 3167 3166 3167 3167 3168 3170 3172 3174 3174 3175 3176 3177 3178 3179
3167 3167 3168 3168 3167 3167 3167 3167 3167 3167 3167 3166 3166 3167 3167 3167 3166 3166 3166 3167 3167 3168 3168 3168 3168 3168 3168 3167 3167 3166 3166 3166 3166 3167 3169 3170 3171 3174 3175 3176 3177 3178 3179
3164 3165 3165 3165 3165 3165 3165 3165 3165 3165 3164 3164 3164 3164 3164 3164 3163 3164 3164 3164 3164 3165 3165 3166 3166 3166 3166 3166 3166 3166 3166 3165 3165 3166 3167 3169 3170 3172 3174 3176 3177 3177 3178
3164 3164 3164 3164 3164 3164 3163 3163 3163 3162 3162 3161 3161 3161 3161 3161 3161 3161 3161 3162 3162 3162 3162 3163 3163 3164 3165 3165 3165 3165 3165 3165 3165 3164 3165 3167 3169 3170 3172 3174 3176 3176 3177
3162 3162 3162 3162 3162 3162 3162 3161 3161 3160 3160 3159 3158 3158 3158 3158 3158 3158 3158 3159 3159 3159 3159 3160 3161 3161 3162 3163 3163 3163 3164 3164 3164 3164 3163 3165 3166 3169 3171 3172 3173 3174 3174
3160 3160 3160 3160 3160 3159 3159 3159 3158 3157 3156 3156 3155 3155 3155 3154 3154 3154 3154 3155 3156 3156 3157 3156 3157 3158 3159 3160 3160 3161 3161 3162 3162 3162 3163 3164 3165 3167 3169 3170 3171 3171 3173
3159 3159 3158 3158 3158 3158 3157 3156 3156 3155 3155 3153 3153 3152 3152 3151 3151 3151 3151 3150 3151 3153 3153 3154 3154 3154 3156 3156 3157 3157 3159 3159 3160 3160 3160 3162 3163 3164 3166 3166 3167 3166 3172
3155 3155 3155 3155 3154 3154 3154 3153 3152 3151 3151 3150 3149 3149 3148 3147 3147 3148 3147 3147 3147 3148 3149 3150 3151 3151 3151 3152 3153 3154 3155 3155 3156 3157 3157 3159 3160 3161 3162 3163 3164 3167 3167
3150 3151 3151 3151 3151 3150 3150 3149 3148 3147 3145 3145 3144 3144 3144 3144 3143 3143 3143 3143 3142 3143 3143 3144 3146 3147 3148 3147 3148 3149 3150 3151 3152 3153 3154 3156 3156 3158 3159 3159 3161 3162 3164
3146 3146 3145 3145 3145 3145 3144 3144 3143 3142 3142 3140 3139 3139 3140 3139 3139 3139 3139 3138 3138 3138 3139 3139 3139 3140 3142 3143 3144 3143 3144 3145 3146 3148 3149 3150 3152 3154 3155 3155 3158 3159 3160
3142 3141 3140 3139 3139 3139 3138 3137 3136 3135 3135 3135 3134 3133 3134 3133 3133 3133 3133 3133 3133 3133 3133 3134 3134 3135 3135 3136 3137 3139 3140 3140 3141 3142 3144 3146 3148 3149 3151 3152 3154 3155 3155
3135 3135 3135 3134 3132 3131 3131 3130 3129 3128 3127 3126 3127 3126 3126 3126 3127 3127 3127 3126 3126 3127 3127 3127 3128 3128 3129 3129 3129 3130 3132 3134 3136 3137 3139 3140 3142 3144 3146 3148 3149 3150 3150
3129 3128 3126 3126 3125 3124 3123 3122 3121 3120 3120 3119 3118 3117 3118 3118 3118 3119 3119 3119 3119 3119 3120 3120 3121 3121 3122 3123 3123 3122 3124 3126 3127 3129 3131 3134 3136 3137 3139 3141 3143 3144 3145
3122 3120 3119 3118 3117 3116 3114 3113 3112 3112 3111 3110 3110 3108 3108 3108 3108 3109 3110 3110 3111 3111 3111 3112 3112 3113 3114 3115 3114 3116 3116 3116 3119 3121 3123 3126 3128 3130 3132 3134 3135 3138 3139
3113 3112 3111 3110 3109 3108 3107 3106 3104 3103 3102 3101 3101 3100 3099 3098 3098 3098 3099 3100 3101 3101 3102 3103 3103 3104 3105 3106 3106 3107 3107 3109 3109 3113 3114 3117 3119 3121 3123 3126 3128 3130 3132
3106 3105 3104 3103 3102 3100 3099 3097 3096 3094 3093 3092 3091 3090 3090 3089 3088 3087 3087 3088 3089 3089 3090 3092 3093 3093 3094 3097 3098 3099 3099 3099 3101 3101 3105 3107 3109 3112 3114 3116 3120 3122 3124
3099 3098 3096 3095 3094 3092 3090 3089 3087 3085 3083 3083 3081 3080 3080 3079 3078 3077 3076 3076 3076 3077 3077 3079 3080 3081 3083 3084 3088 3089 3089 3091 3091 3093 3093 3097 3100 3103 3106 3108 3110 3112 3115
3092 3091 3089 3087 3085 3083 3081 3078 3076 3075 3073 3071 3070 3068 3067 3067 3066 3066 3065 3064 3063 3064 3064 3064 3066 3068 3070 3071 3074 3078 3079 3080 3082 3082 3083 3088 3091 3094 3096 3098 3100 3103 3105
3084 3081 3078 3076 3074 3071 3068 3065 3061 3058 3055 3053 3051 3050 3049 3049 3049 3049 3050 3049 3049 3049 3049 3050 3051 3053 3055 3058 3060 3063 3067 3069 3071 3073 3073 3077 3081 3083 3086 3088 3090 3093 3095